Dewpoint
72 72 73 73 74 73 73 74 75 74 75 76 76 76 76 76 76 76 75 75 75 75 75 76 76 76 76 75 75 75 75 75 75 75 75 75 75 75 74 74 74 74 74 75 74 75 75 75 74 75 75 76 75 75 75 76 76 75 75 75 75 75 75 74 74 75 75 74 75 74 75 75 74 75 75 75 74 74 75 75 75 74 74 74 75
71 73 73 73 73 74 74 74 74 75 75 76 76 76 76 76 76 76 75 75 75 75 75 75 75 76 76 75 76 76 76 75 75 75 75 75 74 74 74 74 74 74 75 75 74 74 75 74 75 75 75 75 75 75 75 75 75 75 75 75 75 75 75 75 74 74 74 74 75 75 75 75 75 75 75 75 75 75 75 75 75 73 74 74 75
72 73 74 75 74 74 74 74 74 75 76 76 76 76 76 76 76 76 75 75 75 75 75 75 75 76 76 76 75 76 76 75 75 75 75 75 75 74 75 75 75 74 75 75 75 75 76 75 75 75 75 75 75 75 75 75 75 75 75 75 74 75 75 75 75 74 74 74 74 74 74 74 74 75 75 74 75 75 75 75 75 74 74 74 74
73 73 74 75 75 74 75 75 75 75 75 76 76 76 76 76 76 76 76 76 75 75 75 75 75 75 75 75 76 76 75 75 75 74 75 75 75 75 75 74 74 75 76 75 75 75 75 75 75 75 75 75 75 75 75 75 75 75 75 75 75 74 75 75 75 75 75 75 75 75 74 73 74 74 75 75 74 75 76 75 75 75 74 74 74
73 74 75 75 76 76 75 75 75 76 76 76 75 75 75 75 76 76 75 75 75 75 75 75 75 75 76 76 75 75 75 75 75 75 75 75 75 75 75 75 75 75 75 76 75 75 75 74 75 75 75 75 75 75 74 74 75 75 75 75 75 75 75 75 74 75 75 75 76 75 73 73 74 74 75 75 75 75 74 74 74 74 74 74 74
74 75 75 75 75 76 75 75 76 75 75 75 75 75 75 75 75 75 75 75 75 75 75 75 75 75 75 75 75 75 75 75 75 75 75 75 75 75 75 74 75 75 75 75 75 75 75 74 75 75 75 75 75 76 75 74 75 75 75 75 75 74 75 74 74 75 75 76 76 74 73 74 73 74 75 74 75 75 75 74 74 74 74 74 74
74 75 75 75 75 75 76 75 76 75 75 75 75 74 74 74 75 75 75 75 75 75 75 76 76 75 75 75 75 75 76 76 75 75 75 75 75 75 74 74 75 74 74 74 75 75 75 75 74 74 74 74 75 75 74 75 75 75 75 75 75 74 74 75 75 76 76 74 73 73 73 73 73 73 75 74 74 74 74 74 74 74 74 74 74
75 75 75 75 75 76 76 75 75 75 75 75 74 74 74 74 74 74 74 74 75 75 75 75 75 74 74 74 74 75 76 75 75 75 74 75 74 74 74 73 74 74 74 74 74 74 74 75 74 74 75 75 75 75 75 75 75 75 75 74 74 73 74 75 75 75 75 73 72 73 73 73 74 73 74 74 74 74 74 74 74 74 74 74 74
74 75 75 75 76 76 75 75 75 75 75 74 74 74 74 74 74 74 74 74 75 75 74 74 74 74 74 74 74 75 75 75 75 75 74 75 74 74 74 73 73 73 74 74 74 74 74 74 74 74 75 75 75 75 75 74 74 74 74 74 74 74 74 75 75 75 73 73 72 72 72 73 73 73 74 74 74 74 73 73 73 73 73 73 73
74 74 75 74 75 76 75 75 75 75 74 74 74 74 74 74 74 74 74 74 75 74 74 74 74 74 74 74 74 75 75 75 75 75 75 75 74 74 75 75 74 74 74 73 73 74 73 74 74 74 75 75 75 75 75 75 75 74 74 74 74 75 74 75 75 75 72 72 72 72 73 75 73 73 73 73 73 73 73 73 75 73 73 73 73
74 74 74 74 75 75 75 75 75 75 75 74 74 74 74 73 73 74 74 74 75 75 75 74 74 74 74 74 75 75 75 75 75 75 75 75 74 75 74 74 75 74 74 73 73 73 73 74 74 74 75 75 76 75 74 74 73 73 74 74 74 74 74 75 74 72 72 72 72 72 74 74 72 72 73 73 73 73 73 73 73 73 73 73 73
74 74 74 75 75 75 75 75 75 75 74 74 74 74 74 73 73 74 74 74 75 75 74 74 74 74 74 74 74 75 75 75 75 75 75 74 74 75 75 74 74 74 74 73 73 74 74 74 75 75 76 75 75 75 75 74 74 73 74 74 74 74 74 75 72 72 72 72 73 72 72 72 72 72 73 73 73 73 73 74 73 73 73 73 73
74 74 75 75 75 75 75 76 75 75 74 75 74 74 74 74 74 74 74 74 74 74 73 74 74 75 74 75 74 75 74 74 75 75 74 74 74 74 74 74 74 74 75 74 75 74 75 74 74 75 76 75 75 75 75 75 75 74 74 74 74 74 74 74 72 72 72 71 72 72 72 72 73 75 73 73 73 73 73 73 73 73 73 73 73
74 74 74 74 74 75 75 75 75 75 75 75 75 74 74 74 74 74 74 73 73 73 74 74 75 75 74 74 74 74 74 74 74 75 75 74 74 74 74 74 75 74 74 75 75 75 74 75 74 75 75 74 74 74 74 75 75 73 73 74 74 74 74 74 74 72 72 71 72 71 71 73 73 75 73 73 73 73 73 73 73 73 73 73 73
74 74 74 75 74 74 75 75 75 75 75 75 74 74 74 75 74 74 74 74 74 75 74 74 74 74 74 74 74 74 74 75 74 74 74 74 74 74 75 75 75 75 75 74 75 75 75 75 75 75 74 74 74 74 74 73 74 74 74 73 73 74 75 73 72 72 72 73 73 72 71 72 74 73 73 73 72 72 72 72 72 72 71 71 71
74 74 75 74 75 75 75 75 75 75 75 74 74 74 74 74 74 74 74 74 75 74 74 74 75 74 73 74 74 74 74 75 74 74 74 74 74 75 75 75 74 74 74 74 75 74 74 74 74 74 74 74 74 74 74 74 74 74 74 74 74 74 74 74 72 71 71 71 72 73 71 73 73 72 72 71 71 70 70 70 70 70 70 70 70
74 74 74 74 74 73 74 75 75 74 73 74 74 74 74 74 75 74 74 74 74 74 74 74 74 74 73 73 74 74 74 74 74 74 74 74 75 75 75 75 75 74 74 74 74 74 74 74 74 74 74 74 74 73 73 73 73 73 74 74 73 73 75 74 72 71 71 72 73 71 71 71 72 72 71 71 70 70 70 70 70 71 71 70 70
74 74 73 74 73 74 74 74 74 74 74 74 74 74 74 74 74 75 75 75 75 74 74 74 74 74 73 74 74 74 74 74 74 74 74 75 75 75 75 75 75 75 74 74 74 74 74 74 74 74 73 74 73 74 73 73 73 73 73 74 73 73 75 74 71 72 72 73 71 73 72 73 72 72 72 71 70 70 70 70 70 70 71 71 70
73 73 73 73 73 73 73 74 74 74 74 74 74 74 74 75 75 75 74 75 74 74 74 74 75 74 74 73 74 74 73 74 74 74 75 75 75 75 75 75 75 74 75 74 74 74 74 74 74 75 74 73 74 73 73 73 73 73 72 73 74 73 75 74 71 71 73 72 71 71 71 74 73 72 72 71 71 71 71 71 70 70 70 69 70
73 73 73 73 73 73 73 73 74 74 74 74 74 74 74 74 74 74 75 75 74 74 74 74 74 74 75 74 74 74 74 73 74 74 75 75 75 75 75 75 75 75 75 75 74 74 74 74 74 75 75 75 75 74 74 74 74 73 73 73 73 74 74 70 71 71 71 71 72 71 73 73 73 72 72 71 71 71 71 70 71 71 71 71 71
72 72 72 72 73 73 73 73 74 74 74 74 73 73 73 74 74 74 74 74 74 74 75 74 74 74 74 74 76 74 74 74 75 74 75 75 75 75 74 75 75 75 75 75 75 75 74 75 74 75 75 75 75 76 76 76 76 75 74 74 75 74 71 70 70 72 71 72 74 71 74 73 73 73 72 72 71 71 72 72 71 72 72 72 71
71 72 72 73 72 73 73 73 73 74 74 74 74 73 74 74 74 74 74 74 74 74 74 74 74 74 75 74 74 75 73 73 74 75 75 75 75 74 74 75 75 75 75 75 75 75 75 75 74 75 75 75 75 74 75 77 76 75 75 76 74 73 70 69 70 71 72 72 73 72 74 73 73 73 73 72 72 72 72 72 72 72 72 72 72
71 72 72 73 72 73 73 73 73 73 74 74 74 75 73 73 73 74 73 74 74 74 74 74 73 73 73 74 74 73 72 73 74 75 75 76 76 75 75 75 75 75 75 75 75 75 74 74 75 75 75 76 76 74 74 74 73 77 77 73 73 72 69 69 70 71 72 72 72 74 74 74 74 74 73 73 73 72 72 72 72 72 73 73 73
71 72 72 73 73 73 73 73 73 74 73 73 74 73 73 73 73 74 73 73 73 74 73 73 73 73 73 73 73 73 73 73 76 75 76 74 74 75 75 75 75 76 75 78 78 78 76 77 77 77 78 77 75 74 75 74 74 74 73 72 73 73 68 70 71 71 71 72 72 74 74 74 74 73 73 73 73 73 72 73 72 72 73 73 73
72 73 73 72 73 73 73 73 73 74 73 74 73 73 73 73 73 74 74 73 73 73 73 73 73 74 73 73 73 73 73 73 73 74 73 73 73 73 73 73 73 72 78 72 73 74 75 74 74 75 74 75 75 74 74 74 74 74 73 72 73 71 68 71 71 70 71 71 73 74 75 74 74 74 73 73 73 73 74 74 73 73 73 73 73
72 72 72 72 73 73 73 73 74 73 73 73 73 74 73 73 73 73 73 73 73 73 73 73 73 73 73 74 74 73 72 73 73 72 73 72 73 72 72 72 72 73 75 74 73 73 73 73 73 74 74 74 74 74 74 75 73 73 72 72 72 70 68 70 70 70 71 71 74 75 75 75 75 74 75 74 74 74 74 74 74 74 74 74 74
71 71 72 73 73 73 74 74 73 73 73 73 74 73 72 73 73 73 73 73 73 73 73 73 73 73 73 74 73 72 72 72 72 72 72 72 72 72 72 72 72 72 73 73 73 73 74 73 73 73 73 73 73 73 73 73 73 73 72 71 71 69 69 69 69 70 71 72 74 75 76 76 75 75 75 75 74 74 74 74 74 74 75 75 74
70 71 72 73 73 74 74 74 73 73 73 74 73 73 72 73 73 74 74 74 73 73 73 73 73 72 73 74 74 72 72 72 71 71 71 71 72 72 72 72 72 73 73 74 73 73 73 73 73 73 73 73 73 73 72 72 72 72 71 70 69 67 68 69 69 70 71 71 73 75 76 76 76 76 75 76 75 75 75 75 75 74 75 75 75
70 71 71 72 73 74 74 74 74 73 73 74 73 72 73 73 74 73 72 75 73 73 73 73 73 73 73 74 73 73 72 72 71 71 71 72 72 72 72 72 73 73 73 73 74 73 72 72 72 72 72 72 72 71 72 71 71 70 69 68 67 67 68 69 69 70 70 71 72 74 76 76 76 76 76 76 76 76 76 76 75 75 75 75 76
69 70 71 71 73 74 73 73 74 73 74 73 72 73 72 72 73 73 72 75 73 73 73 73 73 73 72 73 73 73 73 72 71 71 71 71 72 72 72 72 72 73 73 73 73 73 72 71 71 71 71 72 71 71 73 69 67 67 67 66 66 67 68 69 69 69 70 71 71 73 76 76 76 76 76 76 76 76 76 76 76 76 76 77 77
69 69 70 71 73 73 73 73 73 74 73 73 73 72 73 72 73 72 72 74 72 73 74 73 73 72 72 72 73 74 73 72 71 71 71 72 72 72 72 72 72 72 72 73 73 73 72 71 71 71 71 72 72 72 73 70 66 64 66 64 65 68 68 69 68 68 68 69 70 72 74 76 77 76 76 76 76 76 76 77 77 77 77 77 78
68 69 70 71 72 72 72 72 73 74 73 73 74 72 72 73 73 72 72 73 73 73 73 72 73 72 72 72 72 73 74 71 71 71 72 72 72 72 72 72 72 73 74 73 74 75 75 74 75 74 74 74 73 72 71 71 69 64 65 63 66 67 68 68 67 67 67 68 69 71 72 74 77 77 76 77 77 77 77 77 77 77 77 78 77
68 69 70 71 71 71 70 72 72 73 72 72 73 72 72 73 73 72 73 74 73 72 71 72 72 72 72 72 72 72 74 72 71 72 74 72 72 72 72 74 73 74 75 77 76 74 74 73 73 74 73 73 71 70 72 70 65 63 64 63 64 66 68 68 68 68 67 67 68 69 70 73 74 77 77 77 77 77 77 78 77 78 78 78 78
69 69 70 71 70 70 70 71 72 72 72 71 72 71 71 72 73 72 74 72 72 71 72 72 73 72 72 72 72 72 73 72 72 72 73 72 72 72 72 73 74 75 75 75 74 74 74 73 73 73 73 73 71 70 68 64 62 63 63 63 63 65 67 68 68 68 67 66 67 68 68 70 72 73 74 77 77 78 78 78 78 78 79 79 79
70 69 70 70 71 69 70 70 72 71 73 70 72 70 71 71 72 71 72 72 71 71 72 73 74 73 73 73 73 73 74 73 73 73 73 73 73 73 73 73 74 77 74 75 74 74 73 72 73 72 72 71 71 72 69 67 65 63 63 64 63 64 67 67 68 67 67 67 67 67 68 69 70 72 73 73 75 77 77 78 79 79 79 79 79
69 69 70 70 70 69 71 70 71 71 72 70 71 70 70 71 71 73 71 71 72 72 73 73 73 74 74 73 74 75 74 74 74 73 73 72 72 72 73 74 76 74 74 74 75 73 72 73 72 72 72 71 72 70 67 66 65 65 67 66 64 68 66 66 66 65 65 68 68 68 68 69 69 70 74 72 72 73 75 77 78 79 79 79 79
69 69 69 69 69 69 71 70 71 71 71 70 70 70 70 70 71 72 70 71 71 71 72 73 74 73 74 74 75 76 75 76 75 73 72 72 72 73 73 75 77 74 74 73 73 75 72 73 72 73 72 71 71 70 68 67 65 65 66 67 67 68 64 65 64 64 66 67 68 68 69 69 71 75 73 73 73 72 74 75 77 78 79 80 79
68 68 69 68 68 69 70 69 70 71 71 70 70 70 70 70 71 71 73 70 70 71 72 73 73 73 74 75 76 77 77 76 75 74 73 73 73 73 74 75 76 75 74 73 73 73 73 73 71 72 73 71 70 70 70 68 64 64 65 64 66 66 64 64 65 71 66 66 66 67 67 68 70 71 73 74 74 73 73 75 76 78 79 80 79
67 67 68 68 68 68 69 70 70 70 70 70 71 70 70 70 70 69 70 70 70 71 72 72 73 73 73 74 75 76 77 75 75 75 74 74 73 74 75 75 77 74 73 72 71 73 74 73 71 73 72 72 71 70 70 69 66 64 63 65 66 66 67 67 70 70 68 65 65 68 66 66 67 69 72 73 74 74 73 74 73 72 73 75 78
67 67 68 68 68 68 68 70 70 69 70 70 70 69 69 70 68 69 69 70 69 71 71 72 73 73 74 75 75 75 76 75 75 74 74 74 74 74 74 76 75 72 71 71 71 73 73 73 72 74 72 72 72 69 69 69 65 66 70 66 67 70 73 73 68 66 69 67 65 69 68 65 66 66 69 72 72 72 72 73 75 72 71 72 75
66 67 67 67 67 68 69 69 70 70 70 69 69 69 68 68 68 67 67 69 69 70 71 72 72 73 74 75 75 76 76 76 76 74 74 76 74 74 74 74 75 75 74 72 72 75 75 74 74 72 73 70 69 70 69 67 63 62 63 63 65 69 72 73 65 65 65 65 66 66 66 66 65 65 67 68 68 68 71 73 72 72 72 72 72
66 66 66 66 67 68 68 69 70 70 69 69 69 69 69 67 67 67 69 69 71 70 70 71 72 73 74 74 75 75 75 76 77 76 75 75 74 74 74 73 75 73 75 76 76 77 74 74 73 72 72 70 69 70 69 64 63 61 61 61 65 67 69 69 68 65 67 67 66 66 65 65 63 65 66 68 67 68 70 72 72 73 72 72 73
65 65 66 66 68 68 69 71 71 70 70 70 70 71 72 70 69 70 70 71 71 70 71 72 73 73 74 75 75 75 75 75 76 77 75 75 74 74 73 74 75 77 73 72 73 73 73 73 72 72 71 69 72 72 71 65 63 68 65 62 59 59 65 62 67 68 67 68 66 64 66 64 63 64 68 68 66 67 69 70 71 71 72 72 72
65 65 66 67 68 69 70 71 71 71 71 73 73 72 72 72 71 71 71 70 70 74 72 73 73 73 74 74 74 75 75 75 76 77 76 74 74 74 74 75 74 76 73 71 72 73 73 73 72 74 70 67 69 69 74 70 67 62 58 62 59 61 57 57 62 64 68 68 63 61 64 63 62 63 67 67 65 66 68 70 71 71 72 72 72
64 65 66 67 67 69 70 71 71 71 73 76 73 73 74 73 73 73 73 71 71 71 71 71 72 73 74 74 74 75 75 75 76 76 77 74 75 74 74 74 75 75 74 73 72 73 74 73 72 72 70 68 68 69 70 72 70 67 64 62 59 58 57 58 62 61 64 66 67 63 73 65 61 62 67 66 67 67 67 68 70 71 72 72 72
65 66 67 67 68 69 70 71 71 71 74 73 73 73 72 71 71 70 68 68 68 68 69 70 71 73 73 74 74 75 75 75 75 76 77 76 75 74 73 74 75 75 76 75 74 72 72 72 72 72 72 73 68 69 68 71 72 71 67 64 62 59 59 60 56 54 63 70 70 69 63 63 65 64 66 67 65 66 70 69 69 69 71 71 72
65 66 67 68 69 70 70 71 71 72 73 73 73 72 71 70 70 69 68 68 68 68 69 71 72 73 74 73 73 75 75 75 75 75 76 77 75 74 74 75 75 75 78 74 73 73 71 73 76 73 73 74 69 67 69 70 69 70 71 71 73 70 65 62 61 61 58 63 67 68 66 67 67 63 66 64 64 65 66 69 70 68 68 69 70
65 66 67 68 69 70 70 70 71 73 73 73 72 71 70 70 69 69 70 69 68 68 69 70 72 74 73 73 73 74 75 75 75 75 76 76 76 75 75 75 75 75 77 76 73 73 74 73 77 75 76 73 70 69 68 70 66 67 73 70 71 69 67 69 65 60 61 59 60 65 67 66 65 66 70 66 64 63 64 65 65 66 67 68 69
65 66 67 68 69 70 71 71 71 73 72 73 72 71 71 70 69 69 70 70 69 69 72 73 73 74 73 73 73 73 74 75 75 75 75 76 77 75 75 74 74 73 77 76 74 74 73 72 73 73 72 73 74 72 70 69 70 68 68 66 68 67 66 67 67 68 64 61 61 64 65 66 65 65 64 65 66 66 68 67 67 71 71 72 71
65 67 67 68 69 70 71 71 72 72 72 72 72 71 71 71 70 70 70 70 72 72 73 72 72 73 72 72 72 72 73 74 74 75 75 76 77 76 75 75 74 75 77 75 74 73 73 73 73 73 74 73 73 73 73 71 71 71 69 67 65 66 65 64 65 65 65 62 60 60 64 65 63 64 66 64 65 66 67 68 67 66 68 68 68
65 66 67 68 69 70 70 71 72 72 72 72 72 72 72 70 70 70 70 70 72 72 72 71 71 72 72 72 72 72 73 74 74 75 75 75 76 76 76 75 75 77 77 75 73 73 72 72 74 75 74 73 74 74 73 73 72 71 69 67 65 65 63 62 61 64 62 62 61 61 65 67 65 64 65 66 69 66 67 68 67 66 69 70 70